Home > Time Zones > World Clock > Weather > Iran > Ahvaz > Past weeks

Flag for Iran Weather past 2 weeks in Ahvaz, Iran

Now
97 °F

Clear.


Feels Like: 98 °F
Forecast: 87 / 114 °F
Wind: 5 mph from South

Location: Ahwaz

Current Time: Jul 29, 2014 at 11:32:41 PM

Latest Report: Jul 29, 2014 at 11:00 PM


Visibility: 10 mi

Pressure: 29.36 "Hg

Humidity: 32%

Dew point: 63 °F

Location of AhvazLocation

Historic Weather in Ahvaz — Graph

°F

Ahvaz temperature yesterday

Maximum temperature yesterday: 113 °F (at 2:00 PM)
Minimum temperature yesterday: 93 °F (at 5:30 AM)
Average temperature yesterday: 103 °F

Past Weeks' High & Low Weather Summary

 TemperatureHumidityPressure
High122 °F (Jul 17, 1:30 PM)42% (Jul 16, 7:30 AM)29.56 "Hg (Jul 16, 7:30 AM)
Low82 °F (Jul 16, 6:30 AM)7% (Jul 27, 2:30 PM)29.30 "Hg (Jul 17, 6:30 PM)
Average104 °F20%29.42 "Hg
* Reported Jul 14 9:30 PM — Jul 29 10:00 PM, Ahvaz, Weather by CustomWeather, © 2014

Note: Actual official high and low records may vary slightly from our data, if they occured in-between our weather recording intervals... More about our weather records

Advertising

Ahvaz weather history for previous 24 hours

 ConditionsComfort  
Time TempWeatherWind HumidityBarometerVisibility
10:00 PM
Jul 29
97 °FClear.2 mph34%29.33 "Hg10 mi
9:30 PM99 °FSunny.No wind33%29.33 "Hg10 mi
9:00 PM100 °FSunny.5 mph29%29.33 "Hg10 mi
8:30 PM100 °FSunny.2 mph31%29.33 "Hg10 mi
8:00 PM106 °FSunny.No wind25%29.33 "Hg10 mi
7:30 PM108 °FSunny.5 mph23%29.33 "Hg10 mi
7:00 PM108 °FSunny.5 mph22%29.33 "Hg10 mi
6:30 PM109 °FSunny.5 mph21%29.33 "Hg10 mi
6:00 PM109 °FSunny.7 mph18%29.33 "Hg10 mi
5:30 PM109 °FSunny.9 mph18%29.33 "Hg10 mi
4:30 PM109 °FSunny.2 mph19%29.33 "Hg10 mi
4:00 PM109 °FSunny.5 mph18%29.36 "Hg10 mi
3:30 PM108 °FSunny.No wind20%29.36 "Hg10 mi
3:00 PM108 °FSunny.5 mph20%29.36 "Hg10 mi
2:30 PM106 °FSunny.7 mph22%29.36 "Hg10 mi
2:00 PM106 °FSunny.2 mph23%29.36 "Hg10 mi
1:30 PM104 °FSunny.9 mph24%29.36 "Hg10 mi
12:30 PM100 °FSunny.7 mph29%29.39 "Hg10 mi
12:00 PM100 °FSunny.9 mph29%29.39 "Hg10 mi
11:30 AM99 °FSunny.2 mph29%29.39 "Hg10 mi
11:00 AM97 °FSunny.9 mph30%29.39 "Hg10 mi
10:30 AM93 °FSunny.9 mph34%29.39 "Hg10 mi
10:00 AM93 °FSunny.9 mph36%29.39 "Hg10 mi
9:30 AM91 °FSunny.5 mph36%29.39 "Hg10 mi
9:00 AM90 °FSunny.7 mph38%29.39 "Hg10 mi
8:30 AM88 °FSunny.7 mph40%29.39 "Hg10 mi
8:00 AM88 °FSunny.9 mph38%29.36 "Hg10 mi
7:30 AM86 °FClear.7 mph40%29.36 "Hg10 mi
6:30 AM86 °FClear.7 mph40%29.36 "Hg10 mi
5:30 AM86 °FClear.5 mph38%29.36 "Hg10 mi
4:30 AM88 °FClear.5 mph35%29.39 "Hg10 mi
3:30 AM90 °FClear.5 mph31%29.39 "Hg10 mi
2:30 AM91 °FClear.12 mph30%29.39 "Hg10 mi
1:30 AM93 °FClear.12 mph28%29.42 "Hg10 mi
1:00 AM93 °FClear.12 mph30%29.42 "Hg10 mi
12:30 AM95 °FClear.12 mph28%29.42 "Hg10 mi
12:00 AM95 °FClear.14 mph26%29.42 "Hg10 mi
11:30 PM
Jul 28
97 °FClear.12 mph23%29.42 "Hg10 mi
11:00 PM97 °FClear.12 mph22%29.42 "Hg10 mi
Weather by CustomWeather, © 2014

See weather overviewHow to use our weather pages